Location: Unspecified
(32.2314°N, 110.9180°W)
Time: 00:33:18
(UTC-07:00)

X-37B - Pass Details

Date: 05 October 2022
Orbit: 277 x 277 km, 45.0° (Epoch: 01 November)

Event Time Altitude Azimuth Distance (km) Brightness Sun altitude
Exits shadow 06:23:11 12° 332° (NNW) 1,002 2.4 -12.9°
Maximum altitude 06:25:01 25° 29° (NNE) 607 1.9 -12.5°
Drops below altitude 10° 06:27:08 10° 89° (E) 1,094 4.4 -12.1°
Sets 06:29:12 0° 103° (ESE) 1,904 5.8 -11.6°
